{"data":{"norad_id":66635,"intl_designator":"2025-271U","name":"STARLINK-35955","alt_names":[],"object_type":"PAYLOAD","status":"ACTIVE","operator":null,"country":"US","launch_date":"2025-11-23","launch_site_code":"AFWTR","launch_vehicle":null,"mission":null,"orbit_class":"UNKNOWN","rcs_meters":null,"size_class":null,"mass_kg":null,"dimensions":null,"purposes":["comms"],"wikipedia_slug":null,"has_3d_model":false,"image_url":null,"decayed_at":null,"tle_current":{"epoch":"2026-05-25T00:48:47.975040Z","epoch_age_seconds":66015,"freshness":"FRESH","line1":"1 66635U 25271U   26145.03388860  .00013003  00000+0  45028-3 0  9995","line2":"2 66635  53.1571 145.4410 0001405  99.3479 260.7680 15.30207653 29259","mean_motion":15.30207653,"eccentricity":0.0001405,"inclination_deg":53.1571,"raan_deg":145.441,"arg_perigee_deg":99.3479,"mean_anomaly_deg":260.768,"bstar":0.00045028,"rev_number":2925,"period_min":94.104875059071,"perigee_km":474.22932628075,"apogee_km":476.1551117913,"semimajor_km":6853.329219036,"source":"CELESTRAK","updated_at":"2026-05-25T13:38:21.297883Z"}}}